THOR ABLESTAR DEB, 543

Orbit data source: Space-Track

THOR ABLESTAR DEB, 543 is space debris in LEO originally from a launch on Thu, 29 Jun 1961 UTC launched from the Air Force Eastern Test Range (AFETR). Debris objects in space refer to the collection of defunct objects orbiting the Earth. Examples of debris include non-operational satellites, rocket bodies, and fragments generated from explosions, collisions, or faulty payload assembly.

Loading next visibility...
THOR ABLESTAR DEB details
Identifier
543, 1961-015GC
Orbit
LEO
Last TLE update20 hours ago
Origin
Flag of USUSAF SSD (US)
ManufacturerUnknown
MissionSpacecraft
Bus & MotorUnknown
MassUnknown
Launch date (UTC)
1961-06-29 (64 years ago)
Launch vehicleUnknown
Launch site
Air Force Eastern Test Range (AFETR)
Object type
Payload
Rocket body
Debris
Shape & HBRUnknown
Radar Cross SectionSmall (<0.1 m²)

Expand to show TLE details & history

TLE from 20 hours ago
0 THOR ABLESTAR DEB
1 00543U 61015GC  25035.41145785  .00000296  00000-0  41772-3 0  9996
2 00543  67.0326  24.9245 0070074 202.8968 309.5307 13.68976106168556
Epoch: 2025-02-04T09:52Z
Definitive object data (Epoch: 2025-02-04T09:52:29.958Z)
Latitude25.83354°
Longitude-89.79501°
Altitude972.844 km
Speed7.384 km/s
True Right ascension12h 52m 35s
True Declination25° 42' 10"
Sunlit
Object was in full shadow at TLE epoch
Visualization TLE readout
Latitude-16.89038°
Longitude92.66553°
Altitude1,048.216 km
Speed7.308 km/s
Apparent Right ascension23h 06m 13s
Apparent Declination-32° 40' 59"
Sunlit
Object is in daylight
Visualization observer readout
Local Sidereal Time08:07:02
Azimuth267.016° W
Elevation-53.571°
Doppler factor1
Orbital elements
Apogee altitude1,053.346 km
Perigee altitude949.92 km
Semi-major axis7,379.77 km
Eccentricity0.0070074
Inclination67.0326°
RAAN24.9245°
Arg. of periapsis202.8968°
True anomaly308.90791°
Mean anomaly309.5307°
Eccentric anomaly309.21965°
Mean motion3.42357 °/min
BSTAR0.00041772
Orbital period105.15 mins
Loading maneuver chart data...

THOR ABLESTAR DEB Visibility forecast

Observer location: undefined°, undefined

Span
Click to sort rows by Start time (UTC) header in descending order
Start Az.
Max El. time (UTC)
Max El. Az.
Max El.
End time (UTC)
End Az.
9 mins2025-02-05 08:27:55.605Z356.94° N2025-02-05 08:31:55.605Z38.615° NE21.66°2025-02-05 08:36:55.605Z94.039° ESE
11 mins2025-02-05 10:15:55.605Z325.276° NNW2025-02-05 10:20:55.605Z258.365° W43.09°2025-02-05 10:26:55.605Z163.587° S
10 mins2025-02-05 23:49:55.605Z170.189° S2025-02-05 23:53:55.605Z118.749° SE33.721°2025-02-05 23:59:55.605Z44.173° NE
10 mins2025-02-06 01:37:55.605Z249.149° W2025-02-06 01:42:55.605Z316.433° NNW31.302°2025-02-06 01:47:55.605Z11.985° NNE
|